User: anonymous   Login
Location: Unspecified
(0.0000°N, 0.0000°E)
Time: 20:07:26
(UTC+00:00)
Language:

STARLINK-3235 - Orbit

View from above orbital plane
View from above orbital plane
View from above satellite
View from above satellite

Ground track
Ground track

The orbit is defined by the following mean orbital elements,

1 50200U          26145.58628324 +.00000000 +00000-0 +17799-4 0 00003
2 50200  53.2140 253.8783 0001556  92.4777 267.6393 15.08837442    01
Epoch (UTC): 25 May 2026 14:04:14
Eccentricity: 0.0001556
inclination: 53.2140°
perigee height: 539 km
apogee height: 541 km
right ascension of ascending node: 253.8783°
argument of perigee: 92.4777°
revolutions per day: 15.08837442
mean anomaly at epoch: 267.6393°

The dashed part of the orbit path shows where the satellite is in the earth's shadow,  

DLR